Flag for U.S.A. Weather past 2 weeks in Bridgewater, Massachusetts, U.S.A.

Now
43 °F

Mostly cloudy.


Feels Like: 39 °F
Forecast: 36 / 45 °F
Wind: 6 mph from North

Location: Taunton Municipal Airport

Current Time: Mar 27, 2015 at 5:02:25 PM

Latest Report: Mar 27, 2015 at 3:52 PM


Visibility: 10 mi

Pressure: 29.69 "Hg

Humidity: 79%

Dew point: 37 °F

Location of BridgewaterLocation

Historic Weather in Bridgewater — Graph

°F

Bridgewater temperature yesterday

Maximum temperature yesterday: 54 °F (at 5:52 PM)
Minimum temperature yesterday: 42 °F (at 12:52 AM)
Average temperature yesterday: 49 °F

Past Weeks' High & Low Weather Summary

 TemperatureHumidityPressure
High54 °F (Mar 26, 5:52 PM)100% (Mar 14, 6:00 PM)30.63 "Hg (Mar 14, 6:00 PM)
Low13 °F (Mar 20, 5:52 AM)19% (Mar 13, 2:52 PM)29.39 "Hg (Mar 17, 2:52 PM)
Average34 °F59%30.03 "Hg
* Reported Mar 12 3:52 PM — Mar 27 3:52 PM, Bridgewater, Weather by CustomWeather, © 2015

Note: Actual official high and low records may vary slightly from our data, if they occured in-between our weather recording intervals... More about our weather records

Advertising

Bridgewater weather history for previous 24 hours

 ConditionsComfort  
Time TempWeatherWind HumidityBarometerVisibility
3:52 PM
Fri, Mar 27
43 °FMostly cloudy.6 mph79%29.69 "Hg10 mi
2:52 PM42 °FLight rain. Overcast.3 mph85%29.68 "Hg10 mi
1:52 PM42 °FOvercast.6 mph82%29.69 "Hg10 mi
12:52 PM43 °FMostly cloudy.3 mph82%29.68 "Hg10 mi
12:00 PM42 °FOvercast.3 mph85%29.70 "Hg10 mi
10:52 AM42 °FOvercast.6 mph85%29.72 "Hg10 mi
9:52 AM41 °FMostly cloudy.5 mph89%29.71 "Hg10 mi
9:01 AM41 °FLight rain. Mostly cloudy.3 mph93%29.72 "Hg10 mi
8:04 AM41 °FLight rain. Fog.3 mph93%29.73 "Hg3 mi
7:57 AM41 °FLight rain. Fog.5 mph93%29.72 "Hg4 mi
6:52 AM41 °FLight rain. Overcast.6 mph93%29.69 "Hg8 mi
5:52 AM41 °FLight rain. Low clouds.10 mph93%29.65 "Hg8 mi
5:01 AM42 °FLight rain. Low clouds.6 mph92%29.65 "Hg9 mi
3:52 AM43 °FLight rain. Fog.5 mph93%29.63 "Hg5 mi
2:52 AM44 °FLight rain. Low clouds.5 mph93%29.62 "Hg8 mi
1:52 AM45 °FLow clouds.5 mph93%29.63 "Hg7 mi
12:59 AM45 °FLight rain. Fog.No wind97%29.64 "Hg4 mi
11:52 PM
Thu, Mar 26
46 °FLight rain. Fog.10 mph93%29.64 "Hg6 mi
11:01 PM47 °FLight rain. Fog.7 mph93%29.63 "Hg5 mi
9:52 PM53 °FMostly cloudy.9 mph93%29.63 "Hg10 mi
9:03 PM53 °FLight rain. Fog.9 mph93%29.63 "Hg5 mi
8:52 PM53 °FLight rain. Mostly cloudy.8 mph93%29.65 "Hg9 mi
7:52 PM54 °FLight rain. Fog.21 mph90%29.65 "Hg6 mi
6:59 PM53 °FLight rain. Fog.12 mph93%29.66 "Hg2 mi
5:52 PM54 °FRain. Fog.15 mph93%29.67 "Hg4 mi
Weather by CustomWeather, © 2015

See weather overviewHow to use our weather pages